Regional Weather Roundup
Issued by NWS Wakefield, VA

Home | Current Version | Previous Version | Text Only | Print | Product List | Glossary Off
Versions: 1 2 3 4 5 6 7 8 9 10 11 12 13 14 15 16 17 18 19 20 21 22 23 24 25 26 27 28 29 30 31 32 33 34 35 36

000
ASUS41 KAKQ 230010
RWRAKQ

REGIONAL WEATHER ROUNDUP
NATIONAL WEATHER SERVICE WAKEFIELD VA
800 PM EDT WED OCT 22 2014

Note: "fair" indicates few or no clouds below 12,000 feet with no
significant weather and/or obstructions to visibility. * = Denotes
station may not report precipitation (e.g., rain,snow,etc.),
thunder or fog.

VAZ042-051-052>054-056-230100-
NORTHERN VIRGINIA

CITY           SKY/WX    TMP DP  RH WIND       PRES   REMARKS
WASH NATIONAL  CLOUDY    58  48  69 NW10      29.94S
DULLES         MOCLDY    53  45  74 NW17G24   29.96S
FORT BELVOIR   CLOUDY    56  46  69 NW15G23   29.94S
QUANTICO       CLOUDY    56  46  69 N12G26    29.95S
FREDERICKSBRG* CLOUDY    55  47  74 NW12G17   29.95R
STAFFORD*      CLOUDY    53  45  73 NW13G20   29.99S
WARRENTON      PTCLDY    54  49  83 NW14G24   29.97R
CULPEPER*      MOCLDY    55  45  67 NW10G20   29.99S
MANASSAS*      CLOUDY    55  46  71 N20G28    29.96S
LEESBURG*      PTCLDY    54  46  76 N13G18    29.98S
WINCHESTER     MOCLDY    52  37  58 NW13G21   30.02S
FRONT ROYAL*   CLOUDY    52  43  71 NW7G22    30.03R
LURAY*         CLOUDY    54  45  71 N12       30.04S
$$

VAZ048-049-060>072-079>083-230100-
CENTRAL AND SOUTH CENTRAL VIRGINIA...AND NORTH CENTRAL NORTH CAROLINA

CITY           SKY/WX    TMP DP  RH WIND       PRES   REMARKS
RICHMOND       CLOUDY    56  47  71 NW15G22   29.95R
CHESTERFIELD*  CLOUDY    55  39  54 NW10G18   29.97R
PETERSBURG*    CLOUDY    55  46  69 NW8       29.96S
HANOVER        CLOUDY    55  46  71 NW10G18   29.97R
TAPPAHANNOCK*  CLOUDY    54  48  82 NW6       29.93R
CHARLOTTSVILLE PTCLDY    54  42  64 N10G18    29.99S
ORANGE*        PTCLDY    54  45  71 W10       29.99S
LOUISA*        PTCLDY    52  45  76 NW5       29.96S
FARMVILLE*     CLEAR     54  43  66 CALM      29.97F
CREWE*         MOCLDY    55  44  67 NW8       29.98R
FORT PICKETT*  CLOUDY    54  45  72 NW15G22   29.97S
LUNENBURG*     PTCLDY    54  46  76 NW6       29.98R
SOUTH HILL*    CLOUDY    57  46  67 N7        30.03R
LAWRENCEVILLE* CLOUDY    55  48  77 NW3       29.97R
ROANOKE RAPIDS CLOUDY    54  46  76 N6        29.96R
RALEIGH        PTCLDY    57  41  55 W7        30.00R
$$

VAZ088>098-230100-
SOUTHEAST VIRGINIA

CITY           SKY/WX    TMP DP  RH WIND       PRES   REMARKS
NORFOLK        CLOUDY    57  49  74 NW12G24   29.88R
VIRGINIA BEACH CLOUDY    58  51  78 NW22G31   29.86R
NORFOLK NAVAL  CLOUDY    58  50  75 NW18G33   29.90R
WEST POINT*    CLOUDY    56  49  78 NW9G16    29.93S
NEWPORT NEWS   CLOUDY    57  50  77 NW13G22   29.90R
LANGLEY AFB    CLOUDY    56  51  84 NW21G26   29.89R
FORT EUSTIS    CLOUDY    56  56  99 NW15G26   29.90R
WILLIAMSBURG*  PTCLDY    55  52  88 N13G21    29.92S
HR EXEC AP*    CLOUDY    54  48  82 NW8       29.93R
FRANKLIN*      CLOUDY    55  48  76 NW7G16    29.94R
WAKEFIELD      CLOUDY    56  47  71 N9        29.94R
$$

VAZ020-022-025-037-045-230100-
WEST CENTRAL AND SOUTHWEST VIRGINIA

CITY           SKY/WX    TMP DP  RH WIND       PRES   REMARKS
STAUNTON*      PTCLDY    52  40  64 N13G21    30.05S
HOT SPRINGS VA CLOUDY    41  37  86 NW14G26   30.02F
LYNCHBURG      CLEAR     54  40  59 VRB6      30.02R
DANVILLE       CLEAR     57  40  52 NW8       30.02S
SOUTH BOSTON*  NOT AVBL
MARTINSVILLE   CLEAR     48  41  75 CALM      30.09R
ROANOKE        PTCLDY    52  38  58 W8        30.08S
BLACKSBURG     MOCLDY    48  43  81 CALM      30.12R
DUBLIN*        CLOUDY    49  42  78 NW6       30.14R
MARION*        CLOUDY    46  39  78 NW6       30.18R
HILLSVILLE*    CLOUDY    45  38  77 NW20G29   30.09R
RICHLANDS*     CLOUDY    44  43  95 NW7       30.18S FOG
WISE*          CLOUDY    43  43 100 N6        30.21S
ABINGDON*      CLOUDY    46  42  85 N8        30.19S
$$

MDZ021>025-VAZ099-100-230100-
SOUTHERN MARYLAND AND THE DELMARVA PENINSULA

CITY           SKY/WX    TMP DP  RH WIND       PRES   REMARKS
PATUXENT RIVER LGT RAIN  54  50  86 NW23      29.89R
BAY BRIDGE APT DRIZZLE   54  46  76 NW23G32   29.89F
LEONARDTOWN    CLOUDY    52  48  87 W8G16     29.92R
DOVER          LGT RAIN  54  54 100 NW18G25   29.81S
GEORGETOWN     RAIN      54  51  90 N13G20    29.82S FOG
EASTON         DRIZZLE   55  55 100 N17       29.91S
CAMBRIDGE      CLOUDY    55  52  88 NW16      29.86S VSB<1/4
SALISBURY      LGT RAIN  56  51  84 NW22G31   29.82S
OCEAN CITY     LGT RAIN  54  51  90 N14G25    29.78S
WALLOPS ISLAND LGT RAIN  56  51  84 N17G29    29.82R
ACCOMACK*      CLOUDY    55  50  82 NW15G25   29.84R
$$

NCZ012>017-030>032-230100-
EASTERN NORTH CAROLINA

CITY           SKY/WX    TMP DP  RH WIND       PRES   REMARKS
ELIZABETH CITY CLOUDY    58  49  72 NW16G25   29.89R
AHOSKIE*       CLOUDY    56  46  69 NW7G17    29.96R
EDENTON*       CLOUDY    57  49  74 N14G20    29.92R
CURRITUCK*     CLOUDY    56  49  78 NW9       29.88R
KILL DEVIL HLS CLOUDY    57  51  79 NW10G25   29.85R
MANTEO         CLOUDY    57  50  76 NW18G30   29.87R
CAPE HATTERAS  CLOUDY    58  51  78 NW21G32   29.88R
TARBORO*       PTCLDY    57  49  75 NW7       29.97R
GOLDSBORO      PTCLDY    60  47  63 CALM      29.95R
WASHINGTON     PTCLDY    56  48  74 NW6       29.95R
GREENVILLE     MOCLDY    55  50  82 CALM      29.98R
NEW BERN       PTCLDY    58  49  72 NW5       29.95R
WILMINGTON     PTCLDY    59  47  64 NW3       29.98R
$$

VAZ048-230100-
ELSEWHERE

CITY           SKY/WX    TMP DP  RH WIND       PRES   REMARKS
HARRISBURG PA  CLOUDY    53  43  68 NW17      29.96F
BALTIMORE      CLOUDY    54  46  74 NW9G20    29.92R
ANNAPOLIS      LGT RAIN  55  49  80 NW17      29.91R
ANDREWS AFB    DRIZZLE   54  48  82 NW14      29.92S
WILMINGTON DE  LGT RAIN  54  49  83 N15       29.87S
PHILADELPHIA   RAIN      54  50  86 N15       29.84F
WILDWOOD NJ*   CLOUDY    55  46  71 N15G25    29.79S
ATLANTIC CITY  RAIN      52  50  93 N17G25    29.77S FOG
HENDERSON NC   CLOUDY    56  44  64 NW3       29.99R
GREENSBORO     CLEAR     53  39  59 NW10      30.05R
ROCKY MOUNT    CLOUDY    59  47  64 NW6       29.97R
FAYETTEVILLE   CLEAR     61  42  49 NW12      30.00R
CHARLOTTE      CLEAR     54  37  52 NW8       30.08R
$$

VAZ100-230100-
MARINE

STATION/POSITION TIME  TEMP    WIND        PRES    WAVE   SWELL
                       AIR SEA DIR/SP/G            HT/PER HT/PER
                 (UTC) (F)     (DEG/KT/KT) (MB)    (FT/S) (FT/S)
44066 TX TWR #4  0000   58 66  360/ 31/ 39 1000.4F  14/ 9  10/ 9
CAPE MAY NJ      0000   56 67  340/ 21/ 33 1007.9F
LEWES DE         0000   58 62  350/ 30/ 36 1008.2F
15NM E FENWICK I 0000   58 66  330/ 29/ 37 1006.0R  13/ 8
OCEAN-CITY-INLET 0000   56 64  350/ 16/ 19 1007.9R
WACHAPREAGUE VA  0000   57 63  330/  7/ 16 1010.0R
THOMAS POINT MD  0000   54 63  340/ 19/ 21 1013.1R
GOOSES REEF MD   0000   56     350/ 23/ 27 1012.4R
COVE POINT MD    0000   56     350/ 26/ 29 1011.9R
SOLOMONS ISLAND  0000      64                N/A
BISHOPS HEAD MD  0000   54 59  330/ 16/ 22 1010.8R
PINEY POINT MD   0000          340/ 23/ 27   N/A
POTOMAC MD       0000   56     350/ 19/ 23 1011.7R
CAMBRIDGE MD     0000   56 62  330/ 19/ 25 1011.1S
LEWISETTA VA     0000   56 62  340/ 18/ 25 1012.1R
RAPPAHANNOCK LGT 0000          330/ 34/ 37 1010.8R
STINGRAY PT      0000   57     340/ 21/ 27 1012.1R
YORK RVR RNG VA  0000   56     340/ 24/ 29 1011.1R
YORKTOWN VA      0000   57 66  320/ 21/ 26 1012.0R
JAMESTOWN VA     0000   55     350/ 17/ 21   N/A
DOMINION TERM VA 0000   57     340/ 22/ 30 1012.1R
KIPTOPEKE VA     0000      66  340/ 30/ 35   N/A
CHES BAY BRIDGE  0000   58 66  320/ 28/ 34 1010.8R
CHESAPEAKE LGHT  2300   57     330/ 33/ 36 1009.7R
WILLOUBY STN VA  0000   57     330/ 24/ 30 1010.7R
S CRANEY ISL VA  0000          300/ 13/ 20 1011.7R
CAPE HENRY BUOY  0000      68                N/A     7/ 5
1ST LANDING BUOY 0000   59     320/ 27/ 35 1010.6R
CAPE CHARLES BUO 0000      68                N/A     5/ 4   2/10
64NM E OF VA BCH 0000   61 69  340/ 27/ 33 1006.5R   9/ 6   2/12
DUCK PIER NC     0000   57 68  310/ 19/ 25 1010.1R
44100 DUCK FRF   0000      70                N/A     7/ 6
44056 DUCK FRF   0000                        N/A     4/ 6
OREGON INLET NC  0000   58 64  310/ 20/ 26 1010.6R
HATTERAS NC      0000   60 67  320/ 28/ 33 1011.9R
DIAMOND SHLS NC  0000   61     310/ 27/ 31 1010.9R   6/ 5   2/10
CAPE LOOKOUT NC  2300   61     330/ 10/ 12 1013.3R
$$



USA.gov is the U.S. government's official web portal to all federal, state and local government web resources and services.